Location: Ceska republika
(50.0000°N, 15.0000°E)
Time: 08:21:38
(UTC+02:00)

ISS - Pass Details

Date: 08 October 2017
Orbit: 401 x 408 km, 51.6° (Epoch: 22 October)

Event Time Altitude Azimuth Distance (km) Brightness Sun altitude
Rises 19:37:58 0° 284° (WNW) 2,327 2.0 -12.8°
Reaches altitude 10° 19:40:03 10° 285° (WNW) 1,467 0.4 -13.2°
Maximum altitude 19:43:21 79° 13° (NNE) 419 -3.9 -13.7°
Enters shadow 19:44:54 29° 97° (E) 785 -3.0 -13.9°
